Sexton Summit, OR

6:57 PM PDT on October 21, 2019 (GMT -0700)
Sexton Summit

Weather History for KSXT - August, 2019

Change the Weather History Date:

Thursday, August 8, 2019

  Actual Average Record
Temperature  
Mean Temperature 58 °F -  
Max Temperature 66 °F 76 °F 91 °F (2004)
Min Temperature 50 °F 53 °F 48 °F (1999)
Degree Days  
Heating Degree Days 7    
Growing Degree Days 8 (Base 50)    
Moisture  
Dew Point 52 °F    
Average Humidity 91    
Maximum Humidity 100    
Minimum Humidity 65    
Precipitation  
Precipitation 0.00 in - - ()
Sea Level Pressure  
Sea Level Pressure 29.97 in    
Wind  
Wind Speed 5 mph (NNW)    
Max Wind Speed 9 mph    
Max Gust Speed -    
Visibility 4 miles    
Events Fog , Rain    
Averages and records for this station are not official NWS values.
T = Trace of Precipitation, MM = Missing Value Source: NWS Daily Summary

Daily Weather History Graph

Daily Weather History Graph

Search for Another Location

Airport or City:

Astronomy

Aug. 08, 2019 Rise Set
Actual Time 6:12 AM PDT 8:24 PM PDT
Civil Twilight 5:41 AM PDT 8:56 PM PDT
Nautical Twilight 5:02 AM PDT 9:34 PM PDT
Astronomical Twilight 4:20 AM PDT 10:16 PM PDT
Moon 3:07 PM PDT (8/8) 12:38 AM PDT (8/8)
Length of Visible Light 15h 14m
Length of Day
14h 12m
First Quarter, 61% of the Moon is Illuminated
Aug 8
First Quarter
Aug 15
Full
Aug 23
Last Quarter
Aug 30
New
Sep 5
First Quarter

Hourly Weather History & Observations

Time (PDT) Temp. Dew Point Humidity Pressure Visibility Wind Dir Wind Speed Gust Speed Precip Events Conditions
12:56 AM 52.0 °F 52.0 °F 100% 29.91 in 0.2 mi NW 6.9 mph - 0.00 in Fog , Rain Light Rain
1:56 AM 52.0 °F 52.0 °F 100% 29.91 in 0.2 mi NNW 5.8 mph - 0.00 in Fog Fog
2:56 AM 52.0 °F 52.0 °F 100% 29.89 in 0.2 mi NNW 5.8 mph - N/A Fog Fog
3:56 AM 52.0 °F 52.0 °F 100% 29.88 in 0.2 mi Variable 3.5 mph - N/A Fog Fog
4:56 AM 51.1 °F 51.1 °F 100% 29.89 in 0.5 mi Calm Calm - N/A Fog Fog
5:56 AM 51.1 °F 50.0 °F 96% 29.91 in 0.2 mi North 4.6 mph - 0.00 in Fog Fog
6:37 AM 50.0 °F 50.0 °F 100% 30.03 in 0.2 mi NNW 3.5 mph - 0.00 in Fog Fog
6:56 AM 50.0 °F 50.0 °F 100% 29.94 in 0.2 mi NNW 3.5 mph - 0.00 in Fog Fog
7:56 AM 50.0 °F 50.0 °F 100% 29.96 in 0.2 mi Variable 3.5 mph - 0.00 in Fog Fog
8:56 AM 51.1 °F 51.1 °F 100% 29.97 in 0.2 mi Calm Calm - N/A Fog Fog
9:04 AM 51.1 °F 51.1 °F 100% 30.04 in 0.2 mi North 4.6 mph - N/A Fog Fog
9:20 AM 51.8 °F 50.0 °F 94% 30.04 in 0.2 mi Variable 3.5 mph - N/A Fog , Rain Light Rain
9:56 AM 52.0 °F 51.1 °F 97% 29.97 in 0.2 mi Calm Calm - 0.00 in Fog Fog
10:18 AM 53.1 °F 52.0 °F 96% 30.04 in 0.2 mi Calm Calm - N/A Fog Fog
10:56 AM 53.1 °F 51.1 °F 93% 29.98 in 0.2 mi Calm Calm - N/A Fog Fog
11:29 AM 52.0 °F 51.1 °F 97% 30.05 in 0.2 mi NNW 4.6 mph - N/A Fog Fog
11:42 AM 54.0 °F 52.0 °F 93% 30.05 in 0.5 mi Variable 4.6 mph - N/A Fog Fog
11:56 AM 55.0 °F 52.0 °F 89% 29.98 in 0.2 mi North 4.6 mph - N/A Fog Fog
12:27 PM 55.0 °F 53.1 °F 93% 30.05 in 1.5 mi Variable 3.5 mph - N/A   Overcast
12:56 PM 57.9 °F 53.1 °F 84% 29.97 in 10.0 mi Variable 3.5 mph - N/A   Overcast
1:56 PM 62.1 °F 55.0 °F 78% 29.96 in 10.0 mi Variable 5.8 mph - N/A   Partly Cloudy
2:56 PM 64.0 °F 54.0 °F 70% 29.94 in 10.0 mi Variable 5.8 mph - N/A   Clear
3:56 PM 66.0 °F 54.0 °F 65% 29.93 in 10.0 mi Variable 6.9 mph - N/A   Clear
4:56 PM 64.9 °F 54.0 °F 68% 29.93 in 10.0 mi Variable 6.9 mph - N/A   Clear
5:56 PM 64.0 °F 53.1 °F 67% 29.93 in 10.0 mi NNW 5.8 mph - N/A   Clear
6:56 PM 60.1 °F 52.0 °F 75% 29.94 in 10.0 mi North - - N/A   Clear
7:56 PM 55.9 °F 51.1 °F 84% 29.97 in 10.0 mi NNW 8.1 mph - N/A   Clear
8:56 PM 53.1 °F 50.0 °F 89% 29.99 in 10.0 mi NNW 9.2 mph - N/A   Clear
9:56 PM 52.0 °F 50.0 °F 93% 29.99 in 10.0 mi NNW 9.2 mph - N/A   Partly Cloudy
10:31 PM 51.1 °F 50.0 °F 96% 30.04 in 10.0 mi NNW 8.1 mph - N/A   Mostly Cloudy
10:56 PM 51.1 °F 50.0 °F 96% 29.98 in 9.0 mi NNW 9.2 mph - N/A   Mostly Cloudy
11:39 PM 51.1 °F 50.0 °F 96% 30.04 in 9.0 mi NNW 8.1 mph - N/A   Partly Cloudy
11:56 PM 50.0 °F 50.0 °F 100% 29.96 in 9.0 mi NNW 6.9 mph - N/A   Partly Cloudy